Weather History for KEVV - June, 2014

Change the Weather History Date:

Monday, June 30, 2014

  Actual Average Record
Temperature  
Mean Temperature 83 °F 78 °F  
Max Temperature 93 °F 88 °F 106 °F (2012)
Min Temperature 73 °F 67 °F 50 °F (1950)
Degree Days  
Heating Degree Days 0 0  
Month to date heating degree days 0 4  
Since 1 June heating degree days 0 6  
Since 1 July heating degree days 4980 4547  
Cooling Degree Days 18 13  
Month to date cooling degree days 362 298  
Year to date cooling degree days 573 433  
Since 1 June cooling degree days 362 298  
Growing Degree Days 33 (Base 50)    
Moisture  
Dew Point 71 °F    
Average Humidity 70    
Maximum Humidity 87    
Minimum Humidity 52    
Precipitation  
Precipitation 0.00 in 0.11 in 1.74 in (1900)
Month to date precipitation 3.87 3.78  
Year to date precipitation 25.36 24.02  
Snow  
Snow 0.00 in 0.00 in T in (1952)
Month to date snowfall 0.0 0.0  
Since 1 June snowfall 0.0 0.0  
Since 1 July snowfall 12.6 11.8  
Snow Depth 0.00 in    
Sea Level Pressure  
Sea Level Pressure 29.92 in    
Wind  
Wind Speed 10 mph (SSW)    
Max Wind Speed 22 mph    
Max Gust Speed 27 mph    
Visibility 8 miles    
Events      
T = Trace of Precipitation, MM = Missing Value Source: NWS Daily Summary

Daily Weather History Graph

Daily Weather History Graph

Search for Another Location

Airport or City:

Trip Planner

Search our weather history database for the weather conditions in past years. The results will help you decide how hot, cold, wet, or windy it might be!

Date:

Astronomy

Jun. 30, 2014 Rise Set
Actual Time 5:30 AM CDT 8:16 PM CDT
Civil Twilight 4:59 AM CDT 8:48 PM CDT
Nautical Twilight 4:19 AM CDT 9:27 PM CDT
Astronomical Twilight 3:35 AM CDT 10:11 PM CDT
Moon 8:39 AM CDT (6/30) 10:13 PM CDT (6/30)
Length of Visible Light 15h 48m
Length of Day
14h 46m
Waxing Crescent, 10% of the Moon is Illuminated
Jun 30
Waxing Crescent
Jul 5
First Quarter
Jul 12
Full
Jul 18
Last Quarter
Jul 26
New

Hourly Weather History & Observations

Time (CDT) Temp. Heat Index Dew Point Humidity Pressure Visibility Wind Dir Wind Speed Gust Speed Precip Events Conditions
12:54 AM 73.9 °F - 66.9 °F 79% 30.00 in 10.0 mi South 6.9 mph - N/A   Mostly Cloudy
1:54 AM 73.0 °F - 66.9 °F 81% 29.98 in 10.0 mi South 3.5 mph - N/A   Scattered Clouds
2:54 AM 73.0 °F - 66.9 °F 81% 29.97 in 10.0 mi SE 3.5 mph - N/A   Mostly Cloudy
3:14 AM 73.0 °F - 68.0 °F 84% 29.99 in 10.0 mi Calm Calm - N/A   Overcast
3:54 AM 73.9 °F - 68.0 °F 82% 29.97 in 10.0 mi SSE 4.6 mph - N/A   Overcast
4:11 AM 73.9 °F - 68.0 °F 82% 29.98 in 10.0 mi SSE 3.5 mph - N/A   Scattered Clouds
4:54 AM 73.9 °F - 68.0 °F 82% 29.97 in 10.0 mi South 4.6 mph - N/A   Scattered Clouds
5:22 AM 73.0 °F - 69.1 °F 87% 29.98 in 10.0 mi South 5.8 mph - N/A   Mostly Cloudy
5:54 AM 73.0 °F - 69.1 °F 87% 29.96 in 10.0 mi South 5.8 mph - N/A   Mostly Cloudy
6:24 AM 73.0 °F - 69.1 °F 87% 29.98 in 10.0 mi Calm Calm - N/A   Mostly Cloudy
6:54 AM 73.9 °F - 70.0 °F 87% 29.97 in 10.0 mi South 5.8 mph - N/A   Overcast
7:54 AM 77.0 °F - 72.0 °F 84% 29.98 in 9.0 mi SSW 6.9 mph - N/A   Overcast
8:10 AM 78.1 °F - 72.0 °F 81% 29.99 in 7.0 mi SW 8.1 mph - N/A   Overcast
8:54 AM 78.1 °F - 72.0 °F 81% 29.98 in 5.0 mi SSW 6.9 mph - N/A   Haze
9:54 AM 79.0 °F - 73.0 °F 82% 29.98 in 6.0 mi SSW 8.1 mph - N/A   Haze
10:35 AM 80.1 °F 84.2 °F 73.0 °F 79% 29.99 in 3.0 mi SW 11.5 mph - N/A   Haze
10:54 AM 80.1 °F 84.2 °F 73.0 °F 79% 29.98 in 4.0 mi SSW 8.1 mph - N/A   Haze
11:54 AM 84.0 °F 91.9 °F 75.0 °F 74% 29.96 in 4.0 mi SSW 6.9 mph - N/A   Haze
12:26 PM 87.1 °F 95.4 °F 73.9 °F 65% 29.96 in 8.0 mi SSW 8.1 mph - N/A   Scattered Clouds
12:54 PM 87.1 °F 95.4 °F 73.9 °F 65% 29.94 in 5.0 mi SSW 9.2 mph - N/A   Haze
1:06 PM 88.0 °F 96.5 °F 73.9 °F 63% 29.94 in 8.0 mi SSW 9.2 mph - N/A   Haze
1:54 PM 90.0 °F 97.9 °F 73.0 °F 57% 29.88 in 6.0 mi SSW 11.5 mph - N/A   Haze
2:54 PM 91.0 °F 100.4 °F 73.9 °F 57% 29.86 in 6.0 mi SSW 13.8 mph - N/A   Haze
3:54 PM 91.0 °F 98.2 °F 72.0 °F 53% 29.84 in 10.0 mi SSW 15.0 mph - N/A   Partly Cloudy
4:54 PM 91.0 °F 98.2 °F 72.0 °F 53% 29.82 in 10.0 mi South 17.3 mph 26.5 mph N/A   Partly Cloudy
5:54 PM 90.0 °F 97.9 °F 73.0 °F 57% 29.82 in 10.0 mi SSW 18.4 mph - N/A   Clear
6:54 PM 89.1 °F 97.0 °F 73.0 °F 59% 29.82 in 10.0 mi SSW 17.3 mph - N/A   Partly Cloudy
7:54 PM 87.1 °F 94.5 °F 73.0 °F 63% 29.81 in 10.0 mi SSW 11.5 mph - N/A   Clear
8:54 PM 84.9 °F 91.4 °F 73.0 °F 67% 29.82 in 10.0 mi SSW 11.5 mph - N/A   Clear
9:54 PM 84.0 °F 89.0 °F 71.1 °F 65% 29.80 in 10.0 mi SSW 15.0 mph 23.0 mph N/A   Clear
10:54 PM 82.0 °F 86.3 °F 71.1 °F 69% 29.80 in 10.0 mi SSW 11.5 mph - N/A   Clear
11:54 PM 80.6 °F 84.6 °F 71.6 °F 74% 29.84 in 10.0 mi SW 9.2 mph - N/A   Clear